FW1788 Weather Reports


Display with metric or nautical units.
time (UTC)temp
F
wind
direction
speed
MPH
gust
MPH
rain 1hr
in
rain 24hr
in
rain mn
in
humidity
%
barometer
mb
20260505041513 47 252 7.0 17.0 0.00 0.69 0.00 79 1006.0
20260505040010 47 257 6.0 16.0 0.00 0.70 0.00 78 1005.9
20260505034508 48 253 6.0 19.0 0.00 0.70 0.00 78 1005.8
20260505033010 48 279 5.0 19.0 0.00 0.70 0.00 77 1005.5
20260505031501 48 267 4.0 17.0 0.00 0.70 0.00 76 1005.5
20260505030117 49 210 5.0 16.0 0.00 0.70 0.00 75 1005.2
20260505024611 49 230 6.0 15.0 0.00 0.71 0.70 74 1005.0
20260505023057 49 221 6.0 15.0 0.00 0.71 0.70 74 1004.8
20260505021555 50 265 7.0 20.0 0.00 0.71 0.70 73 1004.8
20260505020106 50 232 6.0 19.0 0.00 0.71 0.70 73 1004.8
20260505014554 50 255 6.0 12.0 0.00 0.72 0.70 73 1004.6
20260505013053 50 260 6.0 19.0 0.00 0.72 0.70 72 1004.5
20260505011553 50 242 7.0 16.0 0.00 0.72 0.70 72 1004.5
20260505010107 50 232 7.0 20.0 0.00 0.72 0.70 71 1004.4
20260505004601 50 211 4.0 11.0 0.00 0.76 0.70 70 1004.2
20260505003051 50 228 7.0 15.0 0.00 0.76 0.70 69 1004.0
20260505001545 50 198 7.0 16.0 0.00 0.76 0.70 67 1003.9
20260505000142 50 226 4.0 13.0 0.00 0.76 0.70 63 1003.6
20260504234541 51 244 5.0 20.0 0.00 0.88 0.70 61 1003.4
20260504233039 51 261 7.0 17.0 0.00 0.88 0.70 57 1003.0
20260504231540 49 218 4.0 11.0 0.00 0.88 0.70 63 1002.7
20260504230037 49 226 2.0 5.0 0.00 0.98 0.70 63 1002.6
20260504224540 50 238 0.0 5.0 0.00 0.98 0.70 59 1002.5
20260504223033 51 233 5.0 12.0 0.00 0.98 0.70 54 1002.4
20260504221538 52 181 7.0 13.0 0.00 0.98 0.70 54 1002.3
20260504220030 52 260 5.0 17.0 0.00 1.10 0.70 54 1002.0
20260504214529 53 203 4.0 14.0 0.00 1.10 0.70 52 1001.9
20260504213036 53 191 8.0 23.0 0.00 1.10 0.70 53 1001.6
20260504211532 53 274 7.0 18.0 0.00 1.10 0.70 54 1001.4
20260504210023 54 236 6.0 26.0 0.00 1.14 0.70 53 1001.3
20260504204520 54 227 6.0 18.0 0.00 1.14 0.70 55 1001.1
20260504203018 53 283 8.0 30.0 0.00 1.14 0.70 54 1000.9
20260504201515 53 26 8.0 25.0 0.00 1.14 0.70 56 1000.7
20260504200014 53 286 13.0 26.0 0.00 1.20 0.70 57 1000.6
20260504194517 53 254 15.0 25.0 0.00 1.20 0.70 59 1000.3
20260504193011 52 262 13.0 27.0 0.00 1.20 0.70 63 1000.0
20260504191505 52 229 12.0 23.0 0.00 1.20 0.70 66 999.9
20260504190002 52 177 7.0 29.0 0.00 1.25 0.70 69 999.7
20260504184609 51 256 10.0 25.0 0.00 1.25 0.70 73 999.5
20260504183058 51 301 13.0 27.0 0.00 1.25 0.70 73 999.3
20260504181554 49 274 8.0 26.0 0.00 1.25 0.70 77 999.3
20260504180052 49 250 11.0 33.0 0.00 1.25 0.70 78 999.0
20260504174548 48 188 8.0 25.0 0.00 1.25 0.70 81 998.8
20260504173045 47 236 11.0 25.0 0.00 1.25 0.70 83 998.5
20260504171545 47 271 10.0 28.0 0.00 1.25 0.70 84 998.3
20260504081556 37 238 5.0 18.0 0.02 0.70 0.15 95 978.3
20260504044536 39 42 0.0 5.0 0.02 0.59 0.04 96 974.5
20260504043037 39 67 1.0 10.0 0.02 0.57 0.03 95 974.7